Cosmos 1606 - Orbit

View from above orbital plane
View from above orbital plane
View from above satellite
View from above satellite

Ground track
Ground track

The orbit data is extracted from the following two-line orbital elements,

1 15369U 84111A   13168.42760459  .00000880  00000-0  56052-4 0  2749
2 15369 082.5072 113.1048 0009655 278.9211 081.0924 15.07487276559665
Epoch (UTC): 17 June 2013 10:15:45
Eccentricity: 0.0009655
inclination: 82.5072°
perigee height: 537 km
apogee height: 550 km
right ascension of ascending node: 113.1048°
argument of perigee: 278.9211°
revolutions per day: 15.07487276
mean anomaly at epoch: 81.0924°
orbit number at epoch: 55966

The dashed part of the orbit path shows where the satellite is in the earth's shadow,  

Developed and maintained by Chris Peat, Heavens-Above GmbH. Please read the updated FAQ before sending e-mail. Imprint. DLR